QPF
0.01 0.02 0.03 0.03 0.02 0.02 0.03 0.05 0.08 0.09 0.09 0.09 0.08 0.07 0.05 0.03 0.02 0.02 0.02 0.02 0.02 0.02 0.03 0.02 0.02 0.03 0.03 0.03 0.02 0.02 0.02 0.02 0.02 0.03 0.03 0.03 0.03 0.03 0.02 0.02 0.01 0.01 0.01
0.01 0.01 0.03 0.03 0.02 0.03 0.03 0.03 0.06 0.07 0.08 0.10 0.11 0.09 0.07 0.05 0.03 0.02 0.02 0.02 0.02 0.02 0.02 0.02 0.02 0.02 0.03 0.03 0.04 0.04 0.03 0.03 0.03 0.03 0.03 0.03 0.03 0.03 0.02 0.02 0.02 0.01 0.01
0.01 0.01 0.02 0.03 0.03 0.03 0.03 0.03 0.03 0.04 0.05 0.07 0.10 0.10 0.09 0.07 0.06 0.05 0.03 0.02 0.02 0.02 0.02 0.03 0.03 0.02 0.02 0.02 0.03 0.04 0.04 0.04 0.04 0.04 0.04 0.03 0.02 0.02 0.02 0.02 0.02 0.02 0.01
0.01 0.02 0.02 0.02 0.03 0.03 0.03 0.04 0.03 0.03 0.05 0.06 0.08 0.09 0.10 0.11 0.10 0.08 0.06 0.04 0.03 0.03 0.03 0.03 0.03 0.03 0.03 0.02 0.02 0.03 0.04 0.03 0.04 0.05 0.04 0.03 0.02 0.02 0.01 0.02 0.02 0.02 0.02
0.00 0.01 0.02 0.03 0.03 0.02 0.03 0.04 0.04 0.03 0.04 0.05 0.06 0.07 0.08 0.09 0.10 0.09 0.07 0.05 0.04 0.04 0.03 0.03 0.04 0.04 0.03 0.03 0.02 0.02 0.03 0.04 0.03 0.03 0.03 0.04 0.04 0.03 0.02 0.02 0.02 0.02 0.02
0.00 0.01 0.01 0.02 0.03 0.03 0.02 0.03 0.05 0.05 0.05 0.05 0.06 0.06 0.07 0.07 0.06 0.07 0.06 0.05 0.04 0.05 0.05 0.04 0.04 0.04 0.04 0.05 0.04 0.04 0.04 0.05 0.06 0.06 0.05 0.04 0.04 0.05 0.05 0.04 0.03 0.02 0.02
0.00 0.00 0.01 0.01 0.01 0.02 0.02 0.02 0.03 0.04 0.05 0.05 0.05 0.05 0.05 0.06 0.06 0.06 0.06 0.05 0.05 0.04 0.04 0.05 0.04 0.03 0.04 0.05 0.06 0.06 0.08 0.09 0.09 0.09 0.09 0.07 0.05 0.04 0.05 0.06 0.05 0.04 0.03
0.00 0.00 0.00 0.01 0.01 0.01 0.01 0.01 0.01 0.01 0.02 0.03 0.03 0.03 0.03 0.03 0.05 0.05 0.06 0.06 0.05 0.04 0.04 0.03 0.04 0.04 0.04 0.04 0.05 0.05 0.05 0.06 0.07 0.08 0.07 0.06 0.06 0.05 0.05 0.05 0.05 0.04 0.03
0.00 0.00 0.00 0.00 0.01 0.00 0.00 0.01 0.01 0.01 0.01 0.01 0.02 0.02 0.02 0.02 0.03 0.03 0.04 0.04 0.04 0.03 0.03 0.03 0.03 0.04 0.04 0.04 0.04 0.05 0.05 0.04 0.04 0.05 0.05 0.06 0.05 0.05 0.04 0.04 0.04 0.04 0.04
0.00 0.00 0.00 0.00 0.00 0.00 0.00 0.00 0.01 0.01 0.00 0.01 0.01 0.01 0.01 0.01 0.02 0.02 0.03 0.02 0.02 0.02 0.02 0.03 0.03 0.03 0.03 0.03 0.03 0.03 0.04 0.04 0.03 0.03 0.03 0.03 0.04 0.04 0.04 0.04 0.04 0.03 0.03
0.00 0.00 0.00 0.00 0.00 0.00 0.00 0.01 0.01 0.01 0.01 0.00 0.00 0.00 0.01 0.01 0.01 0.01 0.02 0.02 0.01 0.01 0.02 0.03 0.03 0.03 0.03 0.02 0.02 0.02 0.02 0.02 0.02 0.02 0.02 0.02 0.02 0.02 0.03 0.03 0.02 0.02 0.02
0.00 0.00 0.00 0.00 0.00 0.01 0.00 0.00 0.00 0.00 0.01 0.01 0.00 0.00 0.01 0.01 0.01 0.01 0.01 0.02 0.01 0.01 0.01 0.01 0.02 0.03 0.03 0.04 0.03 0.02 0.02 0.02 0.02 0.02 0.01 0.01 0.01 0.01 0.01 0.02 0.01 0.01 0.01
0.00 0.00 0.00 0.00 0.00 0.00 0.00 0.00 0.00 0.00 0.00 0.01 0.01 0.01 0.01 0.01 0.01 0.01 0.01 0.01 0.01 0.01 0.00 0.00 0.01 0.02 0.02 0.04 0.05 0.05 0.04 0.03 0.03 0.03 0.03 0.03 0.03 0.02 0.02 0.02 0.01 0.01 0.01
0.00 0.00 0.00 0.00 0.00 0.00 0.00 0.00 0.00 0.00 0.00 0.01 0.01 0.01 0.01 0.01 0.01 0.01 0.01 0.01 0.01 0.01 0.01 0.01 0.01 0.01 0.01 0.02 0.03 0.03 0.03 0.03 0.03 0.03 0.03 0.03 0.04 0.04 0.04 0.03 0.03 0.02 0.02
0.00 0.00 0.00 0.00 0.00 0.00 0.00 0.00 0.00 0.00 0.00 0.01 0.01 0.01 0.01 0.01 0.01 0.01 0.01 0.01 0.01 0.01 0.01 0.01 0.01 0.01 0.01 0.01 0.01 0.02 0.02 0.03 0.02 0.03 0.03 0.03 0.04 0.05 0.05 0.05 0.05 0.06 0.06
0.00 0.00 0.00 0.00 0.00 0.00 0.00 0.00 0.00 0.00 0.01 0.01 0.01 0.01 0.01 0.01 0.01 0.01 0.01 0.01 0.01 0.02 0.01 0.01 0.01 0.01 0.01 0.01 0.02 0.02 0.02 0.03 0.03 0.03 0.02 0.02 0.03 0.03 0.03 0.04 0.04 0.05 0.06
0.00 0.00 0.00 0.00 0.00 0.00 0.00 0.00 0.00 0.00 0.00 0.01 0.01 0.01 0.01 0.01 0.01 0.01 0.01 0.01 0.01 0.01 0.01 0.01 0.01 0.01 0.01 0.02 0.02 0.02 0.02 0.02 0.02 0.02 0.02 0.02 0.03 0.03 0.03 0.02 0.03 0.03 0.03
0.00 0.00 0.00 0.00 0.00 0.00 0.00 0.00 0.00 0.00 0.00 0.00 0.00 0.00 0.01 0.01 0.00 0.00 0.00 0.00 0.00 0.01 0.01 0.01 0.01 0.01 0.01 0.01 0.01 0.02 0.01 0.01 0.01 0.01 0.02 0.02 0.02 0.02 0.02 0.02 0.02 0.02 0.02
0.00 0.00 0.00 0.00 0.00 0.00 0.00 0.00 0.00 0.00 0.00 0.00 0.00 0.00 0.00 0.00 0.00 0.00 0.00 0.00 0.00 0.00 0.00 0.00 0.00 0.01 0.01 0.01 0.01 0.01 0.01 0.01 0.01 0.01 0.01 0.01 0.02 0.02 0.02 0.02 0.02 0.02 0.02
0.00 0.00 0.00 0.00 0.00 0.00 0.00 0.00 0.00 0.00 0.00 0.00 0.00 0.00 0.00 0.00 0.00 0.00 0.00 0.00 0.00 0.00 0.00 0.00 0.00 0.01 0.01 0.01 0.01 0.01 0.01 0.01 0.01 0.01 0.01 0.01 0.02 0.02 0.02 0.02 0.02 0.02 0.02
0.00 0.00 0.00 0.00 0.00 0.00 0.00 0.00 0.00 0.00 0.00 0.00 0.00 0.00 0.00 0.00 0.00 0.00 0.00 0.00 0.00 0.00 0.00 0.00 0.00 0.00 0.00 0.00 0.01 0.01 0.01 0.01 0.01 0.01 0.01 0.01 0.01 0.01 0.02 0.01 0.02 0.02 0.02
0.00 0.00 0.00 0.00 0.00 0.00 0.00 0.00 0.00 0.00 0.00 0.01 0.00 0.00 0.00 0.00 0.00 0.00 0.00 0.00 0.00 0.00 0.00 0.00 0.00 0.00 0.00 0.00 0.00 0.01 0.01 0.01 0.01 0.01 0.01 0.01 0.01 0.01 0.01 0.02 0.02 0.02 0.02
0.00 0.00 0.00 0.00 0.00 0.00 0.00 0.00 0.00 0.00 0.00 0.00 0.00 0.00 0.00 0.00 0.00 0.00 0.00 0.00 0.00 0.00 0.00 0.00 0.00 0.00 0.00 0.00 0.00 0.00 0.01 0.01 0.01 0.01 0.01 0.01 0.01 0.01 0.01 0.01 0.01 0.01 0.01
0.01 0.00 0.00 0.00 0.00 0.00 0.00 0.00 0.00 0.00 0.00 0.00 0.00 0.00 0.00 0.00 0.00 0.00 0.00 0.00 0.00 0.01 0.01 0.01 0.01 0.00 0.00 0.00 0.00 0.01 0.01 0.01 0.01 0.01 0.01 0.01 0.01 0.00 0.01 0.01 0.01 0.01 0.01
0.01 0.01 0.01 0.01 0.01 0.01 0.01 0.01 0.00 0.00 0.00 0.00 0.00 0.00 0.00 0.00 0.00 0.00 0.00 0.00 0.00 0.01 0.02 0.01 0.01 0.01 0.01 0.01 0.01 0.01 0.01 0.01 0.01 0.01 0.01 0.01 0.01 0.01 0.01 0.01 0.01 0.01 0.01
0.02 0.02 0.02 0.01 0.01 0.01 0.02 0.02 0.01 0.01 0.01 0.01 0.00 0.00 0.00 0.00 0.00 0.00 0.00 0.00 0.00 0.01 0.01 0.01 0.02 0.02 0.01 0.01 0.01 0.01 0.01 0.02 0.02 0.02 0.02 0.01 0.01 0.01 0.01 0.01 0.01 0.01 0.01
MSLP
1023.08 1022.79 1022.42 1021.99 1021.50 1020.99 1020.45 1019.88 1019.28 1018.64 1017.99 1017.33 1016.71 1016.14 1015.68 1015.34 1015.14 1015.06 1015.09 1015.17 1015.27 1015.35 1015.36 1015.29 1015.16 1014.97 1014.75 1014.53 1014.34 1014.18 1014.06 1013.97 1013.92 1013.88 1013.85 1013.84 1013.86 1013.91 1014.01 1014.16 1014.36 1014.61 1014.88
1023.29 1023.00 1022.61 1022.16 1021.65 1021.12 1020.55 1019.97 1019.35 1018.71 1018.04 1017.38 1016.74 1016.16 1015.68 1015.32 1015.10 1015.01 1015.04 1015.13 1015.26 1015.37 1015.43 1015.41 1015.31 1015.15 1014.95 1014.72 1014.50 1014.30 1014.13 1013.99 1013.89 1013.81 1013.75 1013.71 1013.70 1013.71 1013.78 1013.89 1014.05 1014.25 1014.49
1023.53 1023.23 1022.83 1022.36 1021.82 1021.26 1020.67 1020.06 1019.44 1018.79 1018.13 1017.48 1016.84 1016.26 1015.77 1015.39 1015.16 1015.06 1015.08 1015.18 1015.33 1015.47 1015.57 1015.60 1015.54 1015.40 1015.20 1014.95 1014.70 1014.45 1014.23 1014.04 1013.88 1013.76 1013.66 1013.60 1013.56 1013.55 1013.58 1013.65 1013.77 1013.94 1014.13
1023.76 1023.47 1023.06 1022.57 1022.01 1021.42 1020.81 1020.19 1019.56 1018.92 1018.28 1017.64 1017.02 1016.45 1015.96 1015.58 1015.34 1015.22 1015.23 1015.34 1015.50 1015.67 1015.80 1015.86 1015.83 1015.71 1015.50 1015.24 1014.94 1014.64 1014.36 1014.12 1013.92 1013.75 1013.63 1013.54 1013.48 1013.44 1013.45 1013.48 1013.56 1013.68 1013.85
1023.92 1023.65 1023.26 1022.76 1022.20 1021.59 1020.97 1020.34 1019.72 1019.10 1018.49 1017.88 1017.30 1016.75 1016.28 1015.90 1015.65 1015.52 1015.52 1015.62 1015.77 1015.95 1016.10 1016.18 1016.17 1016.05 1015.84 1015.55 1015.22 1014.88 1014.56 1014.26 1014.02 1013.83 1013.68 1013.56 1013.48 1013.42 1013.40 1013.39 1013.43 1013.51 1013.63
1023.94 1023.73 1023.38 1022.92 1022.36 1021.76 1021.14 1020.53 1019.92 1019.34 1018.76 1018.20 1017.66 1017.15 1016.70 1016.34 1016.08 1015.93 1015.91 1015.99 1016.13 1016.30 1016.44 1016.52 1016.51 1016.40 1016.18 1015.88 1015.53 1015.16 1014.80 1014.48 1014.21 1013.99 1013.82 1013.68 1013.58 1013.49 1013.43 1013.39 1013.37 1013.40 1013.47
1023.81 1023.68 1023.40 1022.99 1022.48 1021.91 1021.32 1020.73 1020.16 1019.62 1019.09 1018.58 1018.09 1017.63 1017.21 1016.85 1016.59 1016.43 1016.37 1016.41 1016.52 1016.66 1016.78 1016.85 1016.83 1016.71 1016.50 1016.20 1015.84 1015.46 1015.09 1014.76 1014.47 1014.24 1014.05 1013.90 1013.77 1013.65 1013.55 1013.45 1013.38 1013.35 1013.37
1023.51 1023.48 1023.29 1022.96 1022.52 1022.01 1021.46 1020.93 1020.41 1019.91 1019.45 1018.99 1018.56 1018.14 1017.74 1017.40 1017.13 1016.94 1016.85 1016.84 1016.89 1016.98 1017.07 1017.12 1017.09 1016.98 1016.77 1016.48 1016.14 1015.78 1015.42 1015.09 1014.81 1014.57 1014.37 1014.20 1014.04 1013.89 1013.73 1013.59 1013.46 1013.36 1013.32
1023.09 1023.15 1023.05 1022.82 1022.47 1022.03 1021.56 1021.08 1020.62 1020.18 1019.77 1019.38 1018.99 1018.61 1018.25 1017.91 1017.63 1017.41 1017.27 1017.20 1017.20 1017.24 1017.29 1017.32 1017.28 1017.17 1016.99 1016.74 1016.43 1016.10 1015.78 1015.47 1015.20 1014.97 1014.76 1014.57 1014.38 1014.19 1013.98 1013.77 1013.58 1013.42 1013.32
1022.61 1022.74 1022.74 1022.60 1022.33 1021.98 1021.59 1021.17 1020.77 1020.39 1020.03 1019.68 1019.34 1018.99 1018.65 1018.32 1018.02 1017.77 1017.59 1017.47 1017.42 1017.41 1017.42 1017.42 1017.39 1017.30 1017.15 1016.95 1016.70 1016.42 1016.14 1015.88 1015.63 1015.41 1015.19 1014.99 1014.77 1014.53 1014.28 1014.01 1013.76 1013.54 1013.38
1022.14 1022.32 1022.39 1022.33 1022.15 1021.88 1021.54 1021.19 1020.84 1020.50 1020.18 1019.86 1019.55 1019.22 1018.90 1018.57 1018.26 1017.99 1017.78 1017.62 1017.52 1017.47 1017.46 1017.45 1017.43 1017.37 1017.27 1017.12 1016.93 1016.72 1016.50 1016.28 1016.06 1015.85 1015.63 1015.41 1015.16 1014.89 1014.60 1014.29 1014.00 1013.73 1013.51
1021.76 1021.97 1022.08 1022.07 1021.95 1021.74 1021.46 1021.15 1020.83 1020.51 1020.21 1019.91 1019.61 1019.30 1018.98 1018.66 1018.35 1018.06 1017.83 1017.64 1017.52 1017.45 1017.42 1017.41 1017.41 1017.39 1017.34 1017.25 1017.13 1016.98 1016.82 1016.64 1016.45 1016.25 1016.04 1015.81 1015.55 1015.26 1014.94 1014.60 1014.28 1013.97 1013.72
1021.54 1021.74 1021.86 1021.88 1021.79 1021.61 1021.36 1021.07 1020.76 1020.45 1020.14 1019.84 1019.54 1019.23 1018.91 1018.59 1018.28 1018.00 1017.76 1017.57 1017.43 1017.36 1017.33 1017.33 1017.35 1017.36 1017.35 1017.32 1017.26 1017.16 1017.05 1016.91 1016.75 1016.57 1016.37 1016.14 1015.88 1015.58 1015.26 1014.92 1014.58 1014.26 1013.97
1021.47 1021.64 1021.75 1021.77 1021.69 1021.52 1021.27 1020.98 1020.66 1020.33 1020.00 1019.68 1019.36 1019.04 1018.72 1018.41 1018.11 1017.84 1017.60 1017.42 1017.29 1017.22 1017.19 1017.20 1017.23 1017.27 1017.30 1017.30 1017.28 1017.23 1017.15 1017.05 1016.92 1016.77 1016.58 1016.37 1016.12 1015.84 1015.53 1015.20 1014.87 1014.55 1014.25
1021.53 1021.67 1021.75 1021.75 1021.66 1021.47 1021.21 1020.90 1020.55 1020.19 1019.82 1019.47 1019.12 1018.79 1018.46 1018.15 1017.86 1017.61 1017.39 1017.22 1017.10 1017.03 1017.01 1017.02 1017.06 1017.10 1017.14 1017.17 1017.17 1017.15 1017.10 1017.02 1016.92 1016.80 1016.65 1016.46 1016.25 1016.00 1015.72 1015.42 1015.11 1014.79 1014.49
1021.66 1021.76 1021.80 1021.78 1021.66 1021.45 1021.17 1020.82 1020.44 1020.03 1019.62 1019.23 1018.85 1018.49 1018.15 1017.85 1017.57 1017.33 1017.13 1016.98 1016.87 1016.80 1016.77 1016.78 1016.80 1016.83 1016.86 1016.89 1016.89 1016.88 1016.86 1016.81 1016.74 1016.65 1016.54 1016.40 1016.23 1016.03 1015.79 1015.53 1015.24 1014.94 1014.63
1021.78 1021.84 1021.85 1021.79 1021.65 1021.42 1021.11 1020.73 1020.30 1019.85 1019.40 1018.96 1018.55 1018.16 1017.82 1017.51 1017.25 1017.02 1016.84 1016.69 1016.58 1016.51 1016.47 1016.45 1016.44 1016.45 1016.45 1016.45 1016.45 1016.45 1016.43 1016.41 1016.37 1016.33 1016.26 1016.18 1016.06 1015.92 1015.73 1015.50 1015.24 1014.95 1014.63
1021.80 1021.83 1021.81 1021.73 1021.56 1021.31 1020.97 1020.56 1020.11 1019.62 1019.13 1018.66 1018.21 1017.80 1017.44 1017.13 1016.88 1016.66 1016.48 1016.34 1016.23 1016.14 1016.07 1016.02 1015.97 1015.93 1015.90 1015.88 1015.86 1015.85 1015.85 1015.85 1015.85 1015.85 1015.85 1015.82 1015.76 1015.66 1015.51 1015.32 1015.07 1014.79 1014.47
1021.69 1021.68 1021.63 1021.52 1021.34 1021.07 1020.71 1020.29 1019.81 1019.30 1018.78 1018.28 1017.81 1017.38 1017.01 1016.69 1016.44 1016.22 1016.05 1015.91 1015.78 1015.67 1015.57 1015.48 1015.40 1015.32 1015.25 1015.20 1015.17 1015.15 1015.16 1015.19 1015.23 1015.28 1015.32 1015.35 1015.34 1015.28 1015.17 1014.99 1014.75 1014.46 1014.13
1021.41 1021.36 1021.28 1021.15 1020.94 1020.66 1020.30 1019.87 1019.39 1018.86 1018.33 1017.80 1017.31 1016.87 1016.49 1016.17 1015.91 1015.70 1015.52 1015.37 1015.24 1015.11 1014.99 1014.86 1014.74 1014.63 1014.53 1014.45 1014.41 1014.40 1014.43 1014.49 1014.57 1014.66 1014.74 1014.81 1014.83 1014.81 1014.71 1014.54 1014.30 1014.00 1013.64
1021.00 1020.90 1020.78 1020.61 1020.39 1020.10 1019.74 1019.31 1018.82 1018.29 1017.75 1017.22 1016.72 1016.27 1015.88 1015.55 1015.29 1015.07 1014.90 1014.75 1014.60 1014.46 1014.32 1014.17 1014.03 1013.89 1013.78 1013.69 1013.65 1013.65 1013.69 1013.77 1013.88 1014.01 1014.13 1014.22 1014.27 1014.25 1014.16 1013.99 1013.74 1013.43 1013.06
1020.51 1020.34 1020.16 1019.96 1019.71 1019.41 1019.05 1018.62 1018.14 1017.61 1017.07 1016.54 1016.04 1015.58 1015.18 1014.85 1014.59 1014.37 1014.19 1014.04 1013.90 1013.76 1013.61 1013.45 1013.30 1013.16 1013.03 1012.95 1012.91 1012.91 1012.97 1013.08 1013.21 1013.35 1013.49 1013.60 1013.65 1013.64 1013.55 1013.37 1013.11 1012.79 1012.42
1019.97 1019.73 1019.49 1019.24 1018.96 1018.64 1018.27 1017.85 1017.37 1016.85 1016.32 1015.79 1015.29 1014.83 1014.43 1014.10 1013.83 1013.61 1013.44 1013.29 1013.15 1013.01 1012.87 1012.72 1012.57 1012.43 1012.31 1012.23 1012.19 1012.21 1012.28 1012.39 1012.53 1012.68 1012.82 1012.93 1012.98 1012.96 1012.86 1012.68 1012.42 1012.10 1011.74
1019.42 1019.10 1018.79 1018.49 1018.17 1017.83 1017.45 1017.03 1016.55 1016.05 1015.52 1015.00 1014.50 1014.05 1013.65 1013.32 1013.05 1012.83 1012.66 1012.52 1012.39 1012.26 1012.13 1011.99 1011.85 1011.72 1011.61 1011.53 1011.50 1011.52 1011.59 1011.69 1011.83 1011.98 1012.11 1012.21 1012.25 1012.23 1012.12 1011.94 1011.69 1011.39 1011.06
1018.88 1018.48 1018.10 1017.74 1017.38 1017.01 1016.62 1016.19 1015.72 1015.22 1014.71 1014.20 1013.71 1013.26 1012.87 1012.54 1012.27 1012.06 1011.89 1011.76 1011.64 1011.52 1011.40 1011.27 1011.14 1011.02 1010.91 1010.84 1010.80 1010.81 1010.87 1010.97 1011.09 1011.22 1011.33 1011.42 1011.46 1011.43 1011.33 1011.16 1010.93 1010.67 1010.38
1018.33 1017.85 1017.40 1016.99 1016.59 1016.19 1015.78 1015.34 1014.88 1014.39 1013.89 1013.40 1012.92 1012.49 1012.10 1011.78 1011.51 1011.30 1011.14 1011.01 1010.89 1010.78 1010.67 1010.55 1010.42 1010.30 1010.20 1010.12 1010.07 1010.07 1010.11 1010.19 1010.29 1010.40 1010.50 1010.57 1010.60 1010.58 1010.49 1010.35 1010.16 1009.94 1009.71
Thickness
5580 5579 5579 5580 5581 5582 5583 5584 5585 5586 5586 5588 5589 5591 5592 5592 5593 5594 5594 5596 5596 5597 5598 5600 5600 5602 5604 5605 5606 5607 5608 5609 5610 5611 5614 5615 5616 5617 5617 5617 5617 5617 5616
5570 5569 5569 5570 5571 5572 5572 5573 5573 5574 5575 5576 5578 5579 5581 5582 5583 5583 5585 5585 5587 5588 5589 5590 5591 5592 5594 5595 5596 5597 5598 5599 5599 5601 5604 5607 5609 5609 5608 5608 5608 5608 5608
5563 5561 5561 5561 5561 5561 5561 5562 5563 5563 5564 5565 5566 5568 5569 5570 5572 5573 5574 5575 5576 5578 5579 5581 5582 5583 5584 5586 5586 5587 5588 5589 5590 5591 5592 5595 5600 5600 5600 5599 5598 5599 5599
5552 5552 5551 5551 5550 5550 5550 5551 5552 5552 5553 5554 5555 5557 5560 5562 5562 5562 5563 5564 5566 5568 5569 5570 5572 5573 5575 5576 5577 5577 5578 5579 5580 5580 5581 5583 5585 5585 5589 5590 5589 5589 5588
5542 5542 5541 5540 5539 5539 5539 5539 5540 5540 5541 5542 5543 5546 5548 5549 5550 5550 5552 5553 5555 5557 5558 5560 5561 5562 5564 5566 5566 5567 5568 5569 5571 5571 5571 5571 5572 5574 5575 5580 5580 5579 5578
5532 5531 5530 5529 5528 5528 5527 5527 5528 5528 5529 5530 5532 5534 5536 5537 5539 5540 5541 5542 5544 5546 5547 5549 5550 5552 5553 5555 5556 5556 5557 5559 5560 5560 5561 5561 5562 5563 5564 5566 5568 5569 5569
5523 5521 5520 5519 5519 5518 5517 5517 5517 5517 5518 5518 5520 5521 5523 5525 5527 5528 5530 5531 5533 5534 5536 5537 5539 5541 5542 5543 5544 5546 5547 5548 5548 5549 5550 5550 5550 5551 5552 5553 5555 5556 5557
5513 5512 5510 5509 5509 5508 5507 5506 5506 5506 5507 5507 5507 5509 5511 5513 5514 5515 5517 5519 5520 5522 5524 5525 5527 5529 5530 5532 5533 5535 5536 5536 5537 5538 5538 5538 5538 5538 5539 5540 5540 5542 5546
5503 5502 5500 5499 5498 5497 5496 5495 5495 5495 5495 5496 5496 5497 5499 5500 5502 5503 5505 5506 5508 5510 5511 5513 5515 5517 5518 5520 5522 5523 5523 5524 5525 5526 5526 5526 5526 5525 5526 5527 5528 5528 5533
5492 5491 5490 5488 5486 5485 5484 5483 5483 5483 5484 5485 5485 5486 5487 5488 5489 5491 5493 5494 5497 5498 5500 5501 5503 5506 5507 5508 5509 5510 5511 5512 5513 5513 5514 5513 5514 5514 5514 5514 5515 5516 5518
5481 5479 5478 5476 5475 5473 5472 5472 5472 5472 5473 5473 5474 5474 5475 5476 5478 5479 5481 5482 5484 5486 5488 5490 5492 5493 5494 5496 5497 5498 5498 5499 5500 5501 5501 5502 5502 5502 5502 5502 5503 5504 5505
5469 5467 5465 5464 5463 5462 5461 5461 5461 5461 5461 5461 5462 5463 5464 5465 5466 5468 5469 5470 5472 5475 5476 5478 5479 5480 5481 5482 5483 5485 5486 5486 5487 5488 5489 5490 5489 5490 5490 5491 5492 5493 5494
5457 5456 5454 5453 5452 5451 5450 5450 5449 5449 5450 5450 5450 5452 5453 5454 5455 5456 5457 5458 5460 5463 5464 5466 5467 5468 5468 5468 5469 5471 5472 5473 5474 5475 5476 5476 5477 5478 5478 5479 5480 5481 5482
5446 5446 5445 5444 5441 5440 5439 5439 5439 5438 5438 5438 5439 5441 5441 5442 5444 5444 5445 5447 5448 5451 5452 5453 5453 5454 5455 5455 5456 5458 5459 5460 5460 5461 5461 5462 5463 5465 5466 5467 5468 5469 5470
5437 5436 5435 5433 5431 5430 5429 5429 5428 5427 5427 5427 5428 5429 5429 5430 5431 5433 5434 5435 5436 5438 5439 5439 5440 5441 5441 5442 5443 5444 5445 5446 5447 5447 5448 5449 5449 5450 5451 5453 5455 5455 5457
5428 5426 5424 5423 5421 5420 5419 5418 5418 5417 5416 5417 5417 5418 5418 5419 5420 5421 5422 5423 5425 5426 5426 5426 5427 5427 5428 5427 5428 5430 5431 5433 5434 5435 5436 5436 5437 5437 5438 5439 5440 5442 5444
5419 5417 5415 5413 5412 5411 5410 5409 5407 5406 5406 5406 5407 5407 5407 5408 5409 5410 5410 5412 5413 5413 5413 5413 5414 5414 5414 5414 5416 5417 5419 5420 5422 5422 5423 5423 5425 5425 5426 5427 5428 5430 5431
5410 5407 5405 5404 5402 5401 5399 5398 5397 5396 5396 5396 5396 5396 5396 5397 5398 5399 5399 5400 5400 5401 5401 5401 5401 5402 5402 5402 5404 5405 5406 5408 5409 5409 5410 5411 5412 5412 5413 5415 5417 5419 5420
5400 5398 5396 5394 5392 5391 5390 5389 5387 5387 5386 5386 5386 5386 5386 5386 5387 5388 5388 5389 5389 5389 5389 5389 5390 5391 5392 5391 5392 5392 5394 5397 5398 5398 5398 5398 5399 5400 5401 5403 5405 5407 5409
5389 5387 5385 5384 5382 5381 5380 5379 5378 5378 5377 5377 5376 5375 5375 5376 5376 5377 5377 5377 5377 5378 5378 5379 5379 5380 5381 5380 5380 5381 5383 5385 5386 5387 5387 5387 5387 5389 5389 5391 5393 5395 5398
5379 5377 5375 5374 5373 5372 5371 5371 5370 5370 5369 5368 5367 5367 5366 5366 5367 5367 5367 5367 5367 5368 5369 5369 5369 5369 5369 5369 5369 5370 5371 5372 5374 5375 5375 5376 5376 5378 5379 5379 5381 5384 5385
5369 5368 5367 5366 5364 5363 5362 5363 5362 5361 5360 5359 5359 5358 5358 5358 5357 5357 5357 5357 5357 5358 5359 5359 5360 5359 5359 5359 5359 5359 5359 5360 5362 5363 5364 5364 5365 5366 5368 5369 5370 5372 5374
5360 5359 5357 5357 5356 5354 5354 5354 5354 5352 5351 5350 5350 5350 5349 5349 5349 5349 5349 5348 5348 5349 5350 5350 5350 5350 5350 5350 5349 5349 5350 5350 5351 5352 5353 5354 5355 5356 5357 5358 5359 5361 5363
5350 5349 5348 5348 5347 5346 5345 5345 5344 5343 5343 5342 5342 5342 5342 5341 5341 5340 5340 5340 5340 5340 5340 5340 5340 5341 5341 5341 5341 5341 5341 5341 5342 5343 5343 5344 5345 5345 5347 5348 5349 5350 5352
5341 5340 5340 5340 5339 5338 5337 5336 5335 5335 5335 5334 5334 5334 5334 5334 5333 5333 5332 5332 5332 5331 5331 5331 5331 5331 5333 5332 5331 5331 5332 5333 5333 5334 5334 5336 5337 5337 5339 5339 5340 5341 5343
5333 5331 5331 5331 5331 5330 5329 5328 5327 5327 5327 5326 5327 5327 5327 5326 5326 5326 5326 5324 5324 5323 5323 5323 5323 5324 5324 5324 5323 5324 5324 5324 5324 5324 5326 5327 5328 5329 5330 5330 5331 5332 5334